Regional Weather Roundup
Issued by NWS Sterling, VA

Home | Current Version | Previous Version | Graphics & Text | Print | Product List | Glossary On
Versions: 1 2 3 4 5 6 7 8 9 10 11 12 13 14 15 16 17 18 19 20 21 22 23 24 25 26 27 28 29 30 31 32 33 34 35 36 37 38 39 40 41 42 43 44 45 46 47 48 49 50
000
ASUS41 KLWX 171510
RWRLWX

REGIONAL WEATHER ROUNDUP
NATIONAL WEATHER SERVICE BALTIMORE MD/WASHINGTON DC
1100 AM EDT WED SEP 17 2014

Note: "FAIR" indicates few or no clouds below 12,000 feet
with no significant weather and/or obstructions to visibility.
 TC=TEMPERATURE CELSIUS

 * =Non NWS site. Station does not report precipitation (e.g. rain,
    snow, etc.), thunder, or fog.

DCZ001-MDZ009-015-VAZ040>042-051-053>054-171600-
WASHINGTON METRO

CITY           SKY/WX    TMP DP  RH WIND       PRES   REMARKS
WASHINGTON NAT MOSUNNY   72  53  51 CALM      30.07F
DULLES         PTSUNNY   67  52  58 NW3       30.07F
ANDREWS AFB    SUNNY     70  54  56 VRB3      30.06F
QUANTICO       MOSUNNY   70  57  63 N7        30.07F
COLLEGE PARK*  MOSUNNY   70  54  56 S3        30.06F
LEESBURG*      CLOUDY    66  54  63 CALM      30.08S
MANASSAS*      CLOUDY    66  55  68 CALM      30.07
GAITHERSBURG*  SUNNY     66  54  63 E3        30.10F

$$

MDZ006>007-011-014-171600-
BALTIMORE METRO

CITY           SKY/WX    TMP DP  RH WIND       PRES   REMARKS
BWI AIRPORT    MOSUNNY   69  51  52 E6        30.06F
MD SCIENCE CTR   N/A     69  48  47 MISG      30.07S
MARTIN STATE   SUNNY     70  55  60 SE5       30.08S
ANNAPOLIS      SUNNY     68  49  50 SE6       30.06F
FORT MEADE*    SUNNY     68  52  56 CALM      30.08F

$$

MDZ012-015-019>023-171600-
MARYLAND EASTERN SHORE

CITY           SKY/WX    TMP DP  RH WIND       PRES   REMARKS
OCEAN CITY     SUNNY     72  53  51 NE12      30.04S
SALISBURY      SUNNY     75  52  44 NE8       30.04F
BAY BRIDGE AP*   N/A     70  48  46 NE5       30.06F
CAMBRIDGE*     SUNNY     72  50  46 N5        30.05S
EASTON*        MOSUNNY   72  54  53 E6        30.09F

$$

MDZ017>025-171600-
SOUTHERN MARYLAND

CITY           SKY/WX    TMP DP  RH WIND       PRES   REMARKS
PATUXENT RIVER MOSUNNY   72  54  53 E8        30.05S
ST INIGOES     SUNNY     72  53  51 NE6       30.04S
LEONARDTOWN*   SUNNY     70  54  56 NE5       30.06S

$$

MDZ003>005-171600-
NORTH CENTRAL MARYLAND

CITY           SKY/WX    TMP DP  RH WIND       PRES   REMARKS
FREDERICK*     SUNNY     72  55  56 CALM      30.10F
HAGERSTOWN APT SUNNY     63  52  67 CALM      30.07F
WESTMINSTER*   MOSUNNY   66  54  63 CALM      30.07F

$$

MDZ501>502-171600-
WESTERN MARYLAND

CITY           SKY/WX    TMP DP  RH WIND       PRES   REMARKS
OAKLAND*       MOSUNNY   55  50  82 SE5       30.10S
CUMBERLAND*    SUNNY     68  52  56 CALM      30.12F

$$

VAZ025>031-171600-
SHENANDOAH VALLEY

CITY           SKY/WX    TMP DP  RH WIND       PRES   REMARKS
WINCHESTER*    MOSUNNY   64  50  59 S3        30.07F
STAUNTON*      PTSUNNY   64  49  57 CALM      30.10S

$$

WVZ021-048>050-054>055-171600-
EASTERN WEST VIRGINIA PANHANDLE

CITY           SKY/WX    TMP DP  RH WIND       PRES   REMARKS
MARTINSBURG    SUNNY     65  49  56 CALM      30.08F
PETERSBURG*    MOSUNNY   60  52  75 CALM      30.09F

$$

VAZ036>039-050-171600-
CENTRAL FOOTHILLS

CITY           SKY/WX    TMP DP  RH WIND       PRES   REMARKS
CHARLOTTESVILL PTSUNNY   68  50  52 E7        30.07F
ORANGE*        PTSUNNY   68  52  56 N6        30.07F

$$

VAZ055>057-171600-
NORTH AND CENTRAL PIEDMONT

CITY           SKY/WX    TMP DP  RH WIND       PRES   REMARKS
FREDERICKSBRG* SUNNY     71  56  60 NE5       30.05F
STAFFORD*      MOSUNNY   70  56  62 CALM      30.10S

$$

NCZ024-NYZ072-PAZ021-071-VAZ022-071-171600-
OTHER REGIONAL OBSERVATIONS

CITY           SKY/WX    TMP DP  RH WIND       PRES   REMARKS
NEW YORK CITY  SUNNY     66  44  45 CALM      30.08F
PHILADELPHIA   MOSUNNY   70  49  47 E6        30.06F
PITTSBURGH     MOSUNNY   62  48  60 VRB5      30.06F
ROANOKE        CLOUDY    64  50  60 SE6       30.09S
RICHMOND       MOSUNNY   74  57  55 NE10      30.04S
RALEIGH        PTSUNNY   73  61  65 E10       30.00S

$$

ANZ530>537-171600-
MARINE OBSERVATIONS

STATION/POSITION TIME  TEMP    WIND        PRES
                       AIR SEA DIR/SP/G
                 (UTC) (F)     (DEG/KT/KT) (MB)
THOMAS PT LIGHT  1500   66 74   50/  3/  4 1018.9F
BALT KEY BRIDGE  1500   65     140/  5/  6 1018.0S
COVE POINT       1500   68      80/  6/  7 1017.5F
LEWISETTA        1500   70 73   70/  5/  9 1016.9F
SOLOMONS ISLAND  1500      76                N/A
PINEY POINT      1500           60/  6/  9   N/A

$$



USA.gov is the U.S. government's official web portal to all federal, state and local government web resources and services.